Regional Weather Roundup
Issued by NWS

Home | Current Version | Previous Version | Text Only | Print | Product List | Glossary Off
Versions: 1 2 3 4 5 6 7 8 9 10 11 12 13 14 15 16 17 18 19 20 21 22 23 24 25 26 27 28 29 30 31 32 33 34 35 36 37 38 39 40 41 42 43 44 45 46 47 48 49 50

000
ASUS43 KOAX 260610
RWRNE

WEATHER ROUNDUP FOR NEBRASKA
NATIONAL WEATHER SERVICE OMAHA NE
100 AM CDT SUN APR 26 2015

NOTES: SATELLITE DATA IS BEING USED TO AUGMENT CLOUD COVER ABOVE
       12000 FEET.
       "FAIR" INDICATES FEW OR NO CLOUDS BELOW 12,000 FEET WITH NO
       SIGNIFICANT WEATHER AND/OR OBSTRUCTIONS TO VISIBILITY.

  * THESE STATIONS DO NOT REPORT WEATHER SUCH AS RAIN...SNOW OR FOG.

NEZ001>004-019>022-054>056-260700-
NEBRASKA PANHANDLE

CITY           SKY/WX    TMP DP  RH WIND       PRES   REMARKS
SCOTTSBLUFF    LGT RAIN  51  47  86 SE10      29.84R
6HR MIN TEMP:  51; 6HR MAX TEMP:  60; 6HR PCP:  0.03;

ALLIANCE       CLOUDY    51  48  89 SE18G28   29.82R
6HR MIN TEMP:  49; 6HR MAX TEMP:  54; 6HR PCP:  0.05;

CHADRON        CLOUDY    47  46  97 W5        29.83R FOG
6HR MIN TEMP:  46; 6HR MAX TEMP:  55; 6HR PCP:  0.01;

KIMBALL        RAIN      46  44  93 NE15      29.80S
SIDNEY         HVY RAIN  47  45  93 E8        29.87F FOG
6HR MIN TEMP:  47; 6HR MAX TEMP:  57; 6HR PCP:  0.52;

$$

NEZ057>060-069>072-079>082-260700-
SOUTHWEST NEBRASKA

CITY           SKY/WX    TMP DP  RH WIND       PRES   REMARKS
IMPERIAL       CLOUDY    47  45  93 E7        29.87R
6HR MIN TEMP:  48; 6HR MAX TEMP:  68;

LEXINGTON      CLOUDY    48  45  88 E14       29.89R
MCCOOK         CLOUDY    48  46  93 E16       29.85R FOG
6HR MIN TEMP:  48; 6HR MAX TEMP:  65;

OGALLALA       CLOUDY    48  46  93 E16       29.86F
$$

NEZ005>010-023>029-035>040-094-260700-
NORTH CENTRAL NEBRASKA

CITY           SKY/WX    TMP DP  RH WIND       PRES   REMARKS
VALENTINE      CLOUDY    52  44  74 SE9       29.87S
6HR MIN TEMP:  51; 6HR MAX TEMP:  59;

AINSWORTH      CLOUDY    50  45  84 SE14      29.89R
BROKEN BOW     CLOUDY    47  43  86 E8        29.89S
6HR MIN TEMP:  46; 6HR MAX TEMP:  56;

O`NEILL        CLOUDY    50  46  84 E3        29.92S
ORD            CLOUDY    48  43  82 E13       29.89S
6HR MIN TEMP:  44; 6HR MAX TEMP:  56;

THEDFORD       CLOUDY    52  46  80 SE9       29.88F
$$

NEZ041-046>049-061>064-073>077-083>087-260700-
SOUTH CENTRAL NEBRASKA

CITY           SKY/WX    TMP DP  RH WIND       PRES   REMARKS
GRAND ISLAND   CLOUDY    48  43  82 E12       29.90R
6HR MIN TEMP:  48; 6HR MAX TEMP:  51;

AURORA         CLOUDY    48  46  95 E10       29.89S
HASTINGS       CLOUDY    47  44  90 E13       29.88R
6HR MIN TEMP:  47; 6HR MAX TEMP:  50;

HEBRON         CLOUDY    48  45  90 E9        29.88R FOG
HOLDREGE       CLOUDY    46  44  91 E12       29.88S
KEARNEY *      CLOUDY    46  43  87 E15       29.90R
YORK           MOCLDY    48  46  93 E8        29.90R
$$

NEZ011>018-030>034-042>045-260700-
NORTHEAST NEBRASKA

CITY           SKY/WX    TMP DP  RH WIND       PRES   REMARKS
NORFOLK        CLEAR     45  40  82 E6        29.92R
6HR MIN TEMP:  45; 6HR MAX TEMP:  55;

ALBION         CLEAR     44  40  84 E6        29.92R
BLAIR          CLOUDY    48  42  78 NE7       29.91R
COLUMBUS *     CLOUDY    48  39  71 E10       29.93R
FREMONT        CLOUDY    50  43  78 NE5       29.92R
TEKAMAH        MOCLDY    46  41  82 N7        29.93R
6HR MIN TEMP:  46; 6HR MAX TEMP:  56;

WAYNE          CLOUDY    49  40  71 E7        29.95R
$$

NEZ050>053-065>068-078-088>093-260700-
SOUTHEAST NEBRASKA

CITY           SKY/WX    TMP DP  RH WIND       PRES   REMARKS
LINCOLN        CLOUDY    50  44  80 E10       29.92R
6HR MIN TEMP:  50; 6HR MAX TEMP:  52;

OMAHA EPPLEY   CLOUDY    49  42  77 NE7       29.92R
6HR MIN TEMP:  49; 6HR MAX TEMP:  52;

BEATRICE       CLOUDY    47  46  94 NE8G16    29.88R FOG
FALLS CITY     CLOUDY    49  45  86 E12       29.87R
6HR MIN TEMP:  49; 6HR MAX TEMP:  49;

NEBRASKA CITY  CLOUDY    48  44  86 NE10      29.89R
PLATTSMOUTH    CLOUDY    48  43  81 NE12      29.90R
$$

NEZ044-045-051>053-067-260700-
OMAHA AREA

CITY           SKY/WX    TMP DP  RH WIND       PRES   REMARKS
OMAHA EPPLEY   CLOUDY    49  42  77 NE7       29.92R
6HR MIN TEMP:  49; 6HR MAX TEMP:  52;

BLAIR          CLOUDY    48  42  78 NE7       29.91R
FREMONT        CLOUDY    50  43  78 NE5       29.92R
MILLARD        CLOUDY    51  42  72 E8        29.91R
OFFUTT AFB     CLOUDY    49  42  78 NE10      29.90R
PLATTSMOUTH    CLOUDY    48  43  81 NE12      29.90R
WAHOO          CLOUDY    49  43  79 NE7       29.92R
$$



USA.gov is the U.S. government's official web portal to all federal, state and local government web resources and services.